STARLINK-34231 (64175 NORAD) Tracking and Keplerian Element Data

This shows tracking and keplerian element data for the satellite.

Feedback or suggestion? Click here.




ElementValue
Catalog64175
NameSTARLINK-34231
Epoch Orbit3286
Epoch Day354.00788628
Epoch Year2025
RAAN101.3771
Inclination53.159
Eccentricity0.0001356
Argument of Perigee88.0572
Mean Anonmoly272.0584
Mean Motion15.30201623
Decay Rate0.00016001
L11 64175U 25113F 25354.00788628 .00016001 00000+0 55116-3 0 9991
L22 64175 53.1590 101.3771 0001356 88.0572 272.0584 15.30201623 32863



Live tracking and technical data element details for STARLINK-34231 (NORAD 64175). STARLINK-34231 can be tracked NOW for your location showing map with azimuth and elevation plus other details from your city location.







IsCatalogInMostPopularTable: catalog: 64175, numindb: 3
Update: records affected: 1



GetName: 64175 STARLINK-34231

Hit Count: updated at: Mon, 09 Feb 2026 09:31:50 GMT